Time,TemperatureF,DewpointF,PressureIn,WindDirection,WindDirectionDegrees,WindSpeedMPH,WindSpeedGustMPH,Humidity,HourlyPrecipIn,Conditions,Clouds,dailyrainin,SoftwareType,DateUTC
2013-06-14 00:01:00,82.0,76.5,29.86,SW,225,4.0,7.0,84,0.00,,,0.00,Rainwise IP-100,2013-06-14 04:01:00,
2013-06-14 00:06:00,82.0,76.5,29.86,WSW,247,6.0,8.0,84,0.00,,,0.00,Rainwise IP-100,2013-06-14 04:06:00,
2013-06-14 00:11:00,82.0,76.3,29.86,SW,225,2.0,9.0,83,0.00,,,0.00,Rainwise IP-100,2013-06-14 04:11:00,
2013-06-14 00:16:00,82.0,76.3,29.86,SW,225,5.0,6.0,83,0.00,,,0.00,Rainwise IP-100,2013-06-14 04:16:00,
2013-06-14 00:21:00,82.0,76.5,29.87,NW,315,4.0,7.0,84,0.00,,,0.00,Rainwise IP-100,2013-06-14 04:21:00,
2013-06-14 00:26:00,82.0,76.5,29.86,SW,225,0.0,6.0,84,0.00,,,0.00,Rainwise IP-100,2013-06-14 04:26:00,
2013-06-14 00:31:00,82.0,77.0,29.86,SW,225,0.0,2.0,85,0.00,,,0.00,Rainwise IP-100,2013-06-14 04:31:00,
2013-06-14 00:36:00,82.0,77.0,29.86,SW,225,2.0,3.0,85,0.00,,,0.00,Rainwise IP-100,2013-06-14 04:36:00,
2013-06-14 00:41:00,81.0,76.5,29.86,SW,225,0.0,4.0,86,0.00,,,0.00,Rainwise IP-100,2013-06-14 04:41:00,
2013-06-14 00:46:00,81.0,76.8,29.85,SSW,202,0.0,1.0,87,0.00,,,0.00,Rainwise IP-100,2013-06-14 04:46:00,
2013-06-14 00:51:00,81.0,76.8,29.85,SSW,202,0.0,0.0,87,0.00,,,0.00,Rainwise IP-100,2013-06-14 04:51:00,
2013-06-14 00:56:00,81.0,77.0,29.84,SSW,202,0.0,0.0,88,0.00,,,0.00,Rainwise IP-100,2013-06-14 04:56:00,
2013-06-14 01:01:00,81.0,77.0,29.84,SSW,202,0.0,0.0,88,0.00,,,0.00,Rainwise IP-100,2013-06-14 05:01:00,
2013-06-14 01:06:00,81.0,77.0,29.84,SSW,202,0.0,0.0,88,0.00,,,0.00,Rainwise IP-100,2013-06-14 05:06:00,
2013-06-14 01:11:00,81.0,77.0,29.84,WSW,247,0.0,1.0,88,0.00,,,0.00,Rainwise IP-100,2013-06-14 05:11:00,
2013-06-14 01:16:00,81.0,77.0,29.85,SW,225,0.0,5.0,88,0.00,,,0.00,Rainwise IP-100,2013-06-14 05:16:00,
2013-06-14 01:21:00,81.0,77.0,29.86,SSW,202,3.0,4.0,88,0.00,,,0.00,Rainwise IP-100,2013-06-14 05:21:00,
2013-06-14 01:26:00,81.0,77.0,29.85,SW,225,0.0,6.0,88,0.00,,,0.00,Rainwise IP-100,2013-06-14 05:26:00,
2013-06-14 01:31:00,81.0,77.0,29.84,WSW,247,0.0,0.0,88,0.00,,,0.00,Rainwise IP-100,2013-06-14 05:31:00,
2013-06-14 01:36:00,81.0,77.0,29.85,SW,225,0.0,3.0,88,0.00,,,0.00,Rainwise IP-100,2013-06-14 05:36:00,
2013-06-14 01:41:00,81.0,77.0,29.85,SW,225,0.0,0.0,88,0.00,,,0.00,Rainwise IP-100,2013-06-14 05:41:00,
2013-06-14 01:46:00,81.0,76.8,29.84,SW,225,2.0,6.0,87,0.00,,,0.00,Rainwise IP-100,2013-06-14 05:46:00,
2013-06-14 01:51:00,81.0,76.3,29.84,SW,225,0.0,6.0,85,0.00,,,0.00,Rainwise IP-100,2013-06-14 05:51:00,
2013-06-14 01:56:00,81.0,76.0,29.84,SW,225,1.0,7.0,84,0.00,,,0.00,Rainwise IP-100,2013-06-14 05:56:00,
2013-06-14 02:01:00,81.0,75.0,29.85,SW,225,3.0,7.0,82,0.00,,,0.00,Rainwise IP-100,2013-06-14 06:01:00,
2013-06-14 02:06:00,81.0,75.5,29.86,NW,315,6.0,7.0,83,0.00,,,0.00,Rainwise IP-100,2013-06-14 06:06:00,
2013-06-14 02:11:00,81.0,74.7,29.86,NW,315,0.0,10.0,81,0.00,,,0.00,Rainwise IP-100,2013-06-14 06:11:00,
2013-06-14 02:16:00,81.0,74.3,29.86,West,270,7.0,7.0,80,0.00,,,0.00,Rainwise IP-100,2013-06-14 06:16:00,
2013-06-14 02:21:00,81.0,74.0,29.86,NNW,337,0.0,7.0,79,0.00,,,0.00,Rainwise IP-100,2013-06-14 06:21:00,
2013-06-14 02:26:00,80.0,73.0,29.85,WNW,292,0.0,3.0,80,0.00,,,0.00,Rainwise IP-100,2013-06-14 06:26:00,
2013-06-14 02:31:00,80.0,73.3,29.85,WNW,292,0.0,6.0,81,0.00,,,0.00,Rainwise IP-100,2013-06-14 06:31:00,
2013-06-14 02:36:00,80.0,73.3,29.85,WNW,292,0.0,0.0,81,0.00,,,0.00,Rainwise IP-100,2013-06-14 06:36:00,
2013-06-14 02:41:00,80.0,74.0,29.85,WNW,292,1.0,6.0,83,0.00,,,0.00,Rainwise IP-100,2013-06-14 06:41:00,
2013-06-14 02:46:00,79.0,73.3,29.84,SW,225,0.0,4.0,83,0.00,,,0.00,Rainwise IP-100,2013-06-14 06:46:00,
2013-06-14 02:51:00,79.0,73.3,29.84,SW,225,0.0,5.0,83,0.00,,,0.00,Rainwise IP-100,2013-06-14 06:51:00,
2013-06-14 02:56:00,79.0,73.3,29.84,SW,225,0.0,0.0,83,0.00,,,0.00,Rainwise IP-100,2013-06-14 06:56:00,
2013-06-14 03:01:00,79.0,74.0,29.84,SW,225,0.0,0.0,85,0.00,,,0.00,Rainwise IP-100,2013-06-14 07:01:00,
2013-06-14 03:06:00,79.0,74.3,29.84,SW,225,0.0,0.0,86,0.00,,,0.00,Rainwise IP-100,2013-06-14 07:06:00,
2013-06-14 03:11:00,78.0,73.3,29.84,SW,225,0.0,0.0,86,0.00,,,0.00,Rainwise IP-100,2013-06-14 07:11:00,
2013-06-14 03:16:00,78.0,73.7,29.83,SW,225,0.0,0.0,87,0.00,,,0.00,Rainwise IP-100,2013-06-14 07:16:00,
2013-06-14 03:21:00,77.0,73.0,29.84,SW,225,0.0,0.0,87,0.00,,,0.00,Rainwise IP-100,2013-06-14 07:21:00,
2013-06-14 03:26:00,77.0,73.3,29.84,West,270,0.0,4.0,88,0.00,,,0.00,Rainwise IP-100,2013-06-14 07:26:00,
2013-06-14 03:31:00,77.0,73.0,29.84,West,270,6.0,8.0,87,0.00,,,0.00,Rainwise IP-100,2013-06-14 07:31:00,
2013-06-14 03:36:00,78.0,73.0,29.84,West,270,3.0,7.0,85,0.00,,,0.00,Rainwise IP-100,2013-06-14 07:36:00,
2013-06-14 03:41:00,78.0,73.3,29.84,WNW,292,0.0,6.0,86,0.00,,,0.00,Rainwise IP-100,2013-06-14 07:41:00,
2013-06-14 03:46:00,78.0,73.3,29.84,West,270,0.0,4.0,86,0.00,,,0.00,Rainwise IP-100,2013-06-14 07:46:00,
2013-06-14 03:51:00,77.0,72.7,29.84,WNW,292,1.0,5.0,86,0.00,,,0.00,Rainwise IP-100,2013-06-14 07:51:00,
2013-06-14 03:56:00,77.0,72.7,29.84,West,270,0.0,5.0,86,0.00,,,0.00,Rainwise IP-100,2013-06-14 07:56:00,
2013-06-14 04:01:00,77.0,73.0,29.84,WNW,292,0.0,4.0,87,0.00,,,0.00,Rainwise IP-100,2013-06-14 08:01:00,
2013-06-14 04:06:00,77.0,73.0,29.84,WNW,292,0.0,7.0,87,0.00,,,0.00,Rainwise IP-100,2013-06-14 08:06:00,
2013-06-14 04:11:00,77.0,73.0,29.84,WNW,292,6.0,7.0,87,0.00,,,0.00,Rainwise IP-100,2013-06-14 08:11:00,
2013-06-14 04:16:00,77.0,72.7,29.84,NNW,337,0.0,6.0,86,0.00,,,0.00,Rainwise IP-100,2013-06-14 08:16:00,
2013-06-14 04:21:00,77.0,73.0,29.84,NNW,337,0.0,6.0,87,0.00,,,0.00,Rainwise IP-100,2013-06-14 08:21:00,
2013-06-14 04:26:00,77.0,73.0,29.84,ENE,67,0.0,4.0,87,0.00,,,0.00,Rainwise IP-100,2013-06-14 08:26:00,
2013-06-14 04:31:00,77.0,73.0,29.84,WNW,292,6.0,6.0,87,0.00,,,0.00,Rainwise IP-100,2013-06-14 08:31:00,
2013-06-14 04:36:00,77.0,73.0,29.85,West,270,0.0,6.0,87,0.00,,,0.00,Rainwise IP-100,2013-06-14 08:36:00,
2013-06-14 04:41:00,76.0,72.0,29.85,NW,315,4.0,4.0,88,0.00,,,0.00,Rainwise IP-100,2013-06-14 08:41:00,
2013-06-14 04:46:00,76.0,72.0,29.84,NW,315,0.0,5.0,88,0.00,,,0.00,Rainwise IP-100,2013-06-14 08:46:00,
2013-06-14 04:51:00,76.0,72.0,29.84,NNW,337,0.0,2.0,88,0.00,,,0.00,Rainwise IP-100,2013-06-14 08:51:00,
2013-06-14 04:56:00,76.0,72.3,29.85,NNW,337,0.0,2.0,89,0.00,,,0.00,Rainwise IP-100,2013-06-14 08:56:00,
2013-06-14 05:01:00,75.0,71.7,29.85,South,180,0.0,4.0,89,0.00,,,0.00,Rainwise IP-100,2013-06-14 09:01:00,
2013-06-14 05:06:00,75.0,71.7,29.85,NNW,337,0.0,2.0,89,0.00,,,0.00,Rainwise IP-100,2013-06-14 09:06:00,
2013-06-14 05:11:00,75.0,71.7,29.86,WNW,292,0.0,1.0,89,0.00,,,0.00,Rainwise IP-100,2013-06-14 09:11:00,
2013-06-14 05:16:00,75.0,71.7,29.86,WNW,292,0.0,0.0,89,0.00,,,0.00,Rainwise IP-100,2013-06-14 09:16:00,
2013-06-14 05:21:00,75.0,72.0,29.86,SSW,202,0.0,0.0,90,0.00,,,0.00,Rainwise IP-100,2013-06-14 09:21:00,
2013-06-14 05:26:00,75.0,72.0,29.86,WNW,292,0.0,3.0,90,0.00,,,0.00,Rainwise IP-100,2013-06-14 09:26:00,
2013-06-14 05:31:00,75.0,71.7,29.86,NW,315,0.0,7.0,89,0.00,,,0.00,Rainwise IP-100,2013-06-14 09:31:00,
2013-06-14 05:36:00,75.0,71.7,29.86,West,270,0.0,3.0,89,0.00,,,0.00,Rainwise IP-100,2013-06-14 09:36:00,
2013-06-14 05:41:00,75.0,71.7,29.86,West,270,0.0,5.0,89,0.00,,,0.00,Rainwise IP-100,2013-06-14 09:41:00,
2013-06-14 05:46:00,75.0,71.7,29.86,NNW,337,0.0,2.0,89,0.00,,,0.00,Rainwise IP-100,2013-06-14 09:46:00,
2013-06-14 05:51:00,75.0,72.0,29.87,WSW,247,0.0,5.0,90,0.00,,,0.00,Rainwise IP-100,2013-06-14 09:51:00,
2013-06-14 05:56:00,74.0,71.3,29.87,NNW,337,0.0,2.0,90,0.00,,,0.00,Rainwise IP-100,2013-06-14 09:56:00,
2013-06-14 06:01:00,74.0,71.3,29.88,WSW,247,0.0,5.0,90,0.00,,,0.00,Rainwise IP-100,2013-06-14 10:01:00,
2013-06-14 06:06:00,74.0,71.3,29.88,WSW,247,0.0,1.0,91,0.00,,,0.00,Rainwise IP-100,2013-06-14 10:06:00,
2013-06-14 06:11:00,74.0,71.3,29.88,WNW,292,1.0,2.0,91,0.00,,,0.00,Rainwise IP-100,2013-06-14 10:11:00,
2013-06-14 06:16:00,74.0,71.7,29.88,NW,315,0.0,3.0,92,0.00,,,0.00,Rainwise IP-100,2013-06-14 10:16:00,
2013-06-14 06:21:00,74.0,71.7,29.88,NNW,337,0.0,0.0,92,0.00,,,0.00,Rainwise IP-100,2013-06-14 10:21:00,
2013-06-14 06:26:00,73.0,70.5,29.88,NNW,337,0.0,0.0,92,0.00,,,0.00,Rainwise IP-100,2013-06-14 10:26:00,
2013-06-14 06:31:00,73.0,70.5,29.88,North,360,0.0,5.0,92,0.00,,,0.00,Rainwise IP-100,2013-06-14 10:31:00,
2013-06-14 06:36:00,73.0,70.5,29.89,WNW,292,0.0,9.0,92,0.00,,,0.00,Rainwise IP-100,2013-06-14 10:36:00,
2013-06-14 06:41:00,73.0,70.5,29.89,NW,315,0.0,5.0,92,0.00,,,0.00,Rainwise IP-100,2013-06-14 10:41:00,
2013-06-14 06:46:00,73.0,70.5,29.90,NW,315,5.0,6.0,92,0.00,,,0.00,Rainwise IP-100,2013-06-14 10:46:00,
2013-06-14 06:51:00,73.0,70.5,29.90,NW,315,0.0,6.0,92,0.00,,,0.00,Rainwise IP-100,2013-06-14 10:51:00,
2013-06-14 06:53:00,73.0,70.5,29.90,NW,315,0.0,0.0,92,0.00,,,0.00,Rainwise IP-100,2013-06-14 10:53:00,
2013-06-14 06:58:00,73.0,70.5,29.90,West,270,0.0,9.0,91,0.00,,,0.00,Rainwise IP-100,2013-06-14 10:58:00,
2013-06-14 07:03:00,73.0,70.5,29.90,WNW,292,0.0,3.0,91,0.00,,,0.00,Rainwise IP-100,2013-06-14 11:03:00,
2013-06-14 07:08:00,73.0,70.5,29.90,West,270,0.0,0.0,92,0.00,,,0.00,Rainwise IP-100,2013-06-14 11:08:00,
2013-06-14 07:13:00,73.0,70.5,29.90,WNW,292,0.0,5.0,91,0.00,,,0.00,Rainwise IP-100,2013-06-14 11:13:00,
2013-06-14 07:18:00,73.0,70.0,29.90,NW,315,0.0,5.0,90,0.00,,,0.00,Rainwise IP-100,2013-06-14 11:18:00,
2013-06-14 07:23:00,73.0,70.5,29.90,West,270,5.0,5.0,91,0.00,,,0.00,Rainwise IP-100,2013-06-14 11:23:00,
2013-06-14 07:28:00,73.0,69.3,29.90,NW,315,6.0,8.0,88,0.00,,,0.00,Rainwise IP-100,2013-06-14 11:28:00,
2013-06-14 07:33:00,74.0,70.5,29.91,West,270,0.0,8.0,88,0.00,,,0.00,Rainwise IP-100,2013-06-14 11:33:00,
2013-06-14 07:38:00,74.0,69.7,29.90,WSW,247,0.0,6.0,86,0.00,,,0.00,Rainwise IP-100,2013-06-14 11:38:00,
2013-06-14 07:43:00,74.0,69.0,29.91,NW,315,0.0,9.0,84,0.00,,,0.00,Rainwise IP-100,2013-06-14 11:43:00,
2013-06-14 07:48:00,74.0,68.5,29.92,WNW,292,0.0,6.0,82,0.00,,,0.00,Rainwise IP-100,2013-06-14 11:48:00,
2013-06-14 07:53:00,74.0,67.5,29.92,WNW,292,5.0,9.0,80,0.00,,,0.00,Rainwise IP-100,2013-06-14 11:53:00,
2013-06-14 07:58:00,74.0,67.5,29.92,WNW,292,0.0,9.0,80,0.00,,,0.00,Rainwise IP-100,2013-06-14 11:58:00,
2013-06-14 08:00:00,74.0,67.5,29.91,NW,315,0.0,5.0,80,0.00,,,0.00,Rainwise IP-100,2013-06-14 12:00:00,
2013-06-14 08:01:00,74.0,67.5,29.91,West,270,4.0,5.0,80,0.00,,,0.00,Rainwise IP-100,2013-06-14 12:01:00,
2013-06-14 08:06:00,74.0,67.5,29.91,NW,315,0.0,6.0,80,0.00,,,0.00,Rainwise IP-100,2013-06-14 12:06:00,
2013-06-14 08:11:00,74.0,67.0,29.91,NW,315,2.0,7.0,79,0.00,,,0.00,Rainwise IP-100,2013-06-14 12:11:00,
2013-06-14 08:16:00,74.0,66.3,29.92,NW,315,5.0,10.0,77,0.00,,,0.00,Rainwise IP-100,2013-06-14 12:16:00,
2013-06-14 08:21:00,75.0,67.5,29.92,NW,315,0.0,9.0,77,0.00,,,0.00,Rainwise IP-100,2013-06-14 12:21:00,
2013-06-14 08:26:00,75.0,66.7,29.92,ENE,67,4.0,7.0,75,0.00,,,0.00,Rainwise IP-100,2013-06-14 12:26:00,
2013-06-14 08:31:00,75.0,66.0,29.92,East,90,0.0,7.0,73,0.00,,,0.00,Rainwise IP-100,2013-06-14 12:31:00,
2013-06-14 08:36:00,75.0,65.0,29.93,NW,315,2.0,7.0,71,0.00,,,0.00,Rainwise IP-100,2013-06-14 12:36:00,
2013-06-14 08:41:00,75.0,65.0,29.93,NNE,22,0.0,9.0,71,0.00,,,0.00,Rainwise IP-100,2013-06-14 12:41:00,
2013-06-14 08:46:00,76.0,66.3,29.93,South,180,2.0,7.0,72,0.00,,,0.00,Rainwise IP-100,2013-06-14 12:46:00,
2013-06-14 08:51:00,76.0,64.0,29.94,NW,315,0.0,9.0,67,0.00,,,0.00,Rainwise IP-100,2013-06-14 12:51:00,
2013-06-14 08:56:00,77.0,64.0,29.95,WNW,292,0.0,6.0,64,0.00,,,0.00,Rainwise IP-100,2013-06-14 12:56:00,
2013-06-14 09:01:00,77.0,63.0,29.95,North,360,0.0,9.0,62,0.00,,,0.00,Rainwise IP-100,2013-06-14 13:01:00,
2013-06-14 09:06:00,78.0,63.5,29.95,NE,45,0.0,10.0,61,0.00,,,0.00,Rainwise IP-100,2013-06-14 13:06:00,
2013-06-14 09:11:00,79.0,64.0,29.96,NW,315,3.0,4.0,60,0.00,,,0.00,Rainwise IP-100,2013-06-14 13:11:00,
2013-06-14 09:16:00,79.0,64.0,29.96,West,270,0.0,9.0,60,0.00,,,0.00,Rainwise IP-100,2013-06-14 13:16:00,
2013-06-14 09:21:00,79.0,63.0,29.96,SW,225,0.0,5.0,58,0.00,,,0.00,Rainwise IP-100,2013-06-14 13:21:00,
2013-06-14 09:26:00,80.0,62.5,29.97,NNW,337,0.0,7.0,55,0.00,,,0.00,Rainwise IP-100,2013-06-14 13:26:00,
2013-06-14 09:31:00,80.0,62.0,29.97,ESE,112,0.0,3.0,54,0.00,,,0.00,Rainwise IP-100,2013-06-14 13:31:00,
2013-06-14 09:36:00,81.0,62.5,29.98,NNW,337,0.0,6.0,53,0.00,,,0.00,Rainwise IP-100,2013-06-14 13:36:00,
2013-06-14 09:41:00,81.0,61.5,29.98,NW,315,0.0,7.0,51,0.00,,,0.00,Rainwise IP-100,2013-06-14 13:41:00,
2013-06-14 09:46:00,81.0,62.0,29.98,NNW,337,0.0,8.0,52,0.00,,,0.00,Rainwise IP-100,2013-06-14 13:46:00,
2013-06-14 09:51:00,82.0,62.0,29.98,West,270,5.0,6.0,51,0.00,,,0.00,Rainwise IP-100,2013-06-14 13:51:00,
2013-06-14 09:56:00,82.0,62.0,29.98,North,360,0.0,6.0,51,0.00,,,0.00,Rainwise IP-100,2013-06-14 13:56:00,
2013-06-14 10:01:00,82.0,61.0,29.98,North,360,0.0,6.0,49,0.00,,,0.00,Rainwise IP-100,2013-06-14 14:01:00,
2013-06-14 10:06:00,81.0,61.0,29.98,West,270,5.0,11.0,50,0.00,,,0.00,Rainwise IP-100,2013-06-14 14:06:00,
2013-06-14 10:11:00,82.0,60.5,29.98,North,360,0.0,6.0,48,0.00,,,0.00,Rainwise IP-100,2013-06-14 14:11:00,
2013-06-14 10:16:00,81.0,56.5,29.98,NW,315,6.0,9.0,43,0.00,,,0.00,Rainwise IP-100,2013-06-14 14:16:00,
2013-06-14 10:21:00,81.0,57.0,29.98,SE,135,0.0,9.0,44,0.00,,,0.00,Rainwise IP-100,2013-06-14 14:21:00,
2013-06-14 10:26:00,82.0,59.0,29.98,West,270,0.0,10.0,45,0.00,,,0.00,Rainwise IP-100,2013-06-14 14:26:00,
2013-06-14 10:31:00,82.0,59.5,29.98,ENE,67,1.0,9.0,46,0.00,,,0.00,Rainwise IP-100,2013-06-14 14:31:00,
2013-06-14 10:36:00,82.0,57.5,29.99,SW,225,0.0,7.0,44,0.00,,,0.00,Rainwise IP-100,2013-06-14 14:36:00,
2013-06-14 10:41:00,83.0,59.5,29.98,NE,45,0.0,6.0,45,0.00,,,0.00,Rainwise IP-100,2013-06-14 14:41:00,
2013-06-14 10:46:00,83.0,60.0,29.98,SW,225,0.0,4.0,46,0.00,,,0.00,Rainwise IP-100,2013-06-14 14:46:00,
2013-06-14 10:51:00,84.0,60.5,29.98,North,360,0.0,2.0,45,0.00,,,0.00,Rainwise IP-100,2013-06-14 14:51:00,
2013-06-14 10:56:00,83.0,59.0,29.99,WNW,292,3.0,10.0,44,0.00,,,0.00,Rainwise IP-100,2013-06-14 14:56:00,
2013-06-14 11:01:00,83.0,59.0,29.99,South,180,0.0,12.0,44,0.00,,,0.00,Rainwise IP-100,2013-06-14 15:01:00,
2013-06-14 11:06:00,83.0,57.5,29.99,NW,315,0.0,7.0,42,0.00,,,0.00,Rainwise IP-100,2013-06-14 15:06:00,
2013-06-14 11:11:00,83.0,58.0,29.99,WNW,292,0.0,3.0,43,0.00,,,0.00,Rainwise IP-100,2013-06-14 15:11:00,
2013-06-14 11:16:00,82.0,59.0,29.99,NNW,337,0.0,5.0,45,0.00,,,0.00,Rainwise IP-100,2013-06-14 15:16:00,
2013-06-14 11:21:00,82.0,59.5,29.99,WNW,292,0.0,8.0,46,0.00,,,0.00,Rainwise IP-100,2013-06-14 15:21:00,
2013-06-14 11:26:00,84.0,60.5,29.99,WNW,292,0.0,4.0,45,0.00,,,0.00,Rainwise IP-100,2013-06-14 15:26:00,
2013-06-14 11:31:00,84.0,59.5,30.00,North,360,0.0,7.0,43,0.00,,,0.00,Rainwise IP-100,2013-06-14 15:31:00,
2013-06-14 11:36:00,84.0,59.0,30.00,NNE,22,4.0,8.0,42,0.00,,,0.00,Rainwise IP-100,2013-06-14 15:36:00,
2013-06-14 11:41:00,84.0,59.5,30.00,North,360,0.0,6.0,43,0.00,,,0.00,Rainwise IP-100,2013-06-14 15:41:00,
2013-06-14 11:46:00,83.0,57.5,30.00,NE,45,0.0,9.0,42,0.00,,,0.00,Rainwise IP-100,2013-06-14 15:46:00,
2013-06-14 11:51:00,83.0,57.5,30.00,West,270,0.0,13.0,42,0.00,,,0.00,Rainwise IP-100,2013-06-14 15:51:00,
2013-06-14 11:56:00,84.0,60.0,30.00,SW,225,5.0,6.0,44,0.00,,,0.00,Rainwise IP-100,2013-06-14 15:56:00,
2013-06-14 12:01:00,85.0,60.5,30.00,ESE,112,0.0,6.0,44,0.00,,,0.00,Rainwise IP-100,2013-06-14 16:01:00,
2013-06-14 12:06:00,85.0,60.0,30.00,WNW,292,0.0,2.0,43,0.00,,,0.00,Rainwise IP-100,2013-06-14 16:06:00,
2013-06-14 12:11:00,85.0,57.5,30.00,West,270,8.0,9.0,40,0.00,,,0.00,Rainwise IP-100,2013-06-14 16:11:00,
2013-06-14 12:16:00,85.0,59.5,30.00,North,360,0.0,9.0,42,0.00,,,0.00,Rainwise IP-100,2013-06-14 16:16:00,
2013-06-14 12:21:00,85.0,56.5,30.00,NW,315,3.0,8.0,38,0.00,,,0.00,Rainwise IP-100,2013-06-14 16:21:00,
2013-06-14 12:26:00,85.0,57.5,30.00,North,360,0.0,9.0,40,0.00,,,0.00,Rainwise IP-100,2013-06-14 16:26:00,
2013-06-14 12:31:00,86.0,59.5,29.99,West,270,0.0,6.0,41,0.00,,,0.00,Rainwise IP-100,2013-06-14 16:31:00,
2013-06-14 12:36:00,86.0,59.0,30.00,NW,315,0.0,6.0,40,0.00,,,0.00,Rainwise IP-100,2013-06-14 16:36:00,
2013-06-14 12:41:00,87.0,59.0,30.00,South,180,0.0,5.0,39,0.00,,,0.00,Rainwise IP-100,2013-06-14 16:41:00,
2013-06-14 12:46:00,87.0,55.0,30.00,WNW,292,3.0,8.0,34,0.00,,,0.00,Rainwise IP-100,2013-06-14 16:46:00,
2013-06-14 12:51:00,86.0,55.0,30.00,WNW,292,0.0,9.0,35,0.00,,,0.00,Rainwise IP-100,2013-06-14 16:51:00,
2013-06-14 12:56:00,86.0,56.5,30.00,ESE,112,0.0,6.0,37,0.00,,,0.00,Rainwise IP-100,2013-06-14 16:56:00,
2013-06-14 13:01:00,86.0,57.5,30.00,East,90,0.0,7.0,38,0.00,,,0.00,Rainwise IP-100,2013-06-14 17:01:00,
2013-06-14 13:06:00,86.0,59.5,30.00,East,90,0.0,6.0,41,0.00,,,0.00,Rainwise IP-100,2013-06-14 17:06:00,
2013-06-14 13:11:00,86.0,58.0,30.00,NNW,337,0.0,9.0,39,0.00,,,0.00,Rainwise IP-100,2013-06-14 17:11:00,
2013-06-14 13:16:00,86.0,59.0,30.00,NW,315,6.0,8.0,40,0.00,,,0.00,Rainwise IP-100,2013-06-14 17:16:00,
2013-06-14 13:21:00,86.0,59.0,30.00,WNW,292,0.0,9.0,40,0.00,,,0.00,Rainwise IP-100,2013-06-14 17:21:00,
2013-06-14 13:26:00,86.0,57.5,30.01,WSW,247,0.0,8.0,38,0.00,,,0.00,Rainwise IP-100,2013-06-14 17:26:00,
2013-06-14 13:31:00,87.0,59.0,30.01,NW,315,0.0,6.0,39,0.00,,,0.00,Rainwise IP-100,2013-06-14 17:31:00,
2013-06-14 13:36:00,87.0,60.0,30.01,WSW,247,2.0,12.0,40,0.00,,,0.00,Rainwise IP-100,2013-06-14 17:36:00,
2013-06-14 13:41:00,85.0,57.5,30.01,West,270,3.0,10.0,40,0.00,,,0.00,Rainwise IP-100,2013-06-14 17:41:00,
2013-06-14 13:46:00,86.0,60.5,30.01,North,360,0.0,11.0,42,0.00,,,0.00,Rainwise IP-100,2013-06-14 17:46:00,
2013-06-14 13:51:00,87.0,61.0,29.99,NNE,22,0.0,7.0,42,0.00,,,0.00,Rainwise IP-100,2013-06-14 17:51:00,
2013-06-14 13:56:00,88.0,61.0,29.99,West,270,0.0,2.0,40,0.00,,,0.00,Rainwise IP-100,2013-06-14 17:56:00,
2013-06-14 14:01:00,87.0,60.0,30.00,SW,225,0.0,8.0,40,0.00,,,0.00,Rainwise IP-100,2013-06-14 18:01:00,
2013-06-14 14:06:00,87.0,60.0,29.99,NW,315,0.0,9.0,40,0.00,,,0.00,Rainwise IP-100,2013-06-14 18:06:00,
2013-06-14 14:11:00,87.0,61.0,30.00,ENE,67,2.0,3.0,42,0.00,,,0.00,Rainwise IP-100,2013-06-14 18:11:00,
2013-06-14 14:16:00,88.0,61.0,30.00,NNW,337,0.0,5.0,40,0.00,,,0.00,Rainwise IP-100,2013-06-14 18:16:00,
2013-06-14 14:21:00,87.0,58.0,30.00,West,270,0.0,4.0,38,0.00,,,0.00,Rainwise IP-100,2013-06-14 18:21:00,
2013-06-14 14:26:00,86.0,58.0,30.00,South,180,0.0,10.0,39,0.00,,,0.00,Rainwise IP-100,2013-06-14 18:26:00,
2013-06-14 14:31:00,88.0,61.0,30.00,WSW,247,0.0,3.0,40,0.00,,,0.00,Rainwise IP-100,2013-06-14 18:31:00,
2013-06-14 14:36:00,88.0,57.5,30.00,WSW,247,0.0,5.0,36,0.00,,,0.00,Rainwise IP-100,2013-06-14 18:36:00,
2013-06-14 14:41:00,88.0,59.5,30.00,SE,135,0.0,6.0,38,0.00,,,0.00,Rainwise IP-100,2013-06-14 18:41:00,
2013-06-14 14:46:00,88.0,59.5,30.00,West,270,0.0,3.0,38,0.00,,,0.00,Rainwise IP-100,2013-06-14 18:46:00,
2013-06-14 14:51:00,87.0,59.0,30.00,WNW,292,6.0,9.0,39,0.00,,,0.00,Rainwise IP-100,2013-06-14 18:51:00,
2013-06-14 14:56:00,87.0,58.0,30.00,North,360,0.0,9.0,38,0.00,,,0.00,Rainwise IP-100,2013-06-14 18:56:00,
2013-06-14 15:01:00,88.0,59.5,30.00,West,270,0.0,6.0,38,0.00,,,0.00,Rainwise IP-100,2013-06-14 19:01:00,
2013-06-14 15:06:00,88.0,57.5,30.01,NW,315,0.0,6.0,36,0.00,,,0.00,Rainwise IP-100,2013-06-14 19:06:00,
2013-06-14 15:11:00,87.0,57.5,30.01,West,270,0.0,6.0,37,0.00,,,0.00,Rainwise IP-100,2013-06-14 19:11:00,
2013-06-14 15:16:00,88.0,59.5,30.01,SE,135,0.0,6.0,38,0.00,,,0.00,Rainwise IP-100,2013-06-14 19:16:00,
2013-06-14 15:21:00,89.0,60.0,30.01,WNW,292,0.0,5.0,38,0.00,,,0.00,Rainwise IP-100,2013-06-14 19:21:00,
2013-06-14 15:26:00,88.0,59.5,30.02,West,270,1.0,4.0,38,0.00,,,0.00,Rainwise IP-100,2013-06-14 19:26:00,
2013-06-14 15:31:00,88.0,61.0,30.01,ENE,67,0.0,7.0,40,0.00,,,0.00,Rainwise IP-100,2013-06-14 19:31:00,
2013-06-14 15:36:00,88.0,61.0,30.02,West,270,0.0,9.0,40,0.00,,,0.00,Rainwise IP-100,2013-06-14 19:36:00,
2013-06-14 15:41:00,88.0,59.5,30.02,NNW,337,0.0,7.0,38,0.00,,,0.00,Rainwise IP-100,2013-06-14 19:41:00,
2013-06-14 15:46:00,88.0,59.5,30.02,WNW,292,0.0,7.0,38,0.00,,,0.00,Rainwise IP-100,2013-06-14 19:46:00,
2013-06-14 15:51:00,89.0,60.0,30.02,North,360,0.0,6.0,38,0.00,,,0.00,Rainwise IP-100,2013-06-14 19:51:00,
2013-06-14 15:56:00,90.0,61.0,30.02,West,270,0.0,0.0,38,0.00,,,0.00,Rainwise IP-100,2013-06-14 19:56:00,
2013-06-14 16:01:00,89.0,60.0,30.03,West,270,0.0,7.0,38,0.00,,,0.00,Rainwise IP-100,2013-06-14 20:01:00,
2013-06-14 16:06:00,88.0,60.0,30.03,NE,45,1.0,7.0,39,0.00,,,0.00,Rainwise IP-100,2013-06-14 20:06:00,
2013-06-14 16:11:00,88.0,61.0,30.03,West,270,5.0,9.0,40,0.00,,,0.00,Rainwise IP-100,2013-06-14 20:11:00,
2013-06-14 16:16:00,86.0,60.5,30.02,WNW,292,0.0,9.0,42,0.00,,,0.00,Rainwise IP-100,2013-06-14 20:16:00,
2013-06-14 16:21:00,85.0,60.0,30.02,NE,45,0.0,7.0,43,0.00,,,0.00,Rainwise IP-100,2013-06-14 20:21:00,
2013-06-14 16:26:00,84.0,59.5,30.02,WSW,247,3.0,6.0,43,0.00,,,0.00,Rainwise IP-100,2013-06-14 20:26:00,
2013-06-14 16:31:00,85.0,60.0,30.02,West,270,4.0,7.0,43,0.00,,,0.00,Rainwise IP-100,2013-06-14 20:31:00,
2013-06-14 16:36:00,86.0,61.0,30.02,North,360,0.0,7.0,43,0.00,,,0.00,Rainwise IP-100,2013-06-14 20:36:00,
2013-06-14 16:41:00,86.0,60.5,30.02,ESE,112,0.0,6.0,42,0.00,,,0.00,Rainwise IP-100,2013-06-14 20:41:00,
2013-06-14 16:46:00,87.0,60.0,30.02,ESE,112,0.0,6.0,40,0.00,,,0.00,Rainwise IP-100,2013-06-14 20:46:00,
2013-06-14 16:51:00,88.0,61.0,30.02,NW,315,4.0,5.0,40,0.00,,,0.00,Rainwise IP-100,2013-06-14 20:51:00,
2013-06-14 16:56:00,88.0,60.0,30.03,NW,315,0.0,6.0,39,0.00,,,0.00,Rainwise IP-100,2013-06-14 20:56:00,
2013-06-14 17:01:00,87.0,60.5,30.02,East,90,0.0,7.0,41,0.00,,,0.00,Rainwise IP-100,2013-06-14 21:01:00,
2013-06-14 17:06:00,86.0,60.5,30.02,NNW,337,0.0,3.0,42,0.00,,,0.00,Rainwise IP-100,2013-06-14 21:06:00,
2013-06-14 17:11:00,85.0,61.0,30.02,North,360,0.0,3.0,45,0.00,,,0.00,Rainwise IP-100,2013-06-14 21:11:00,
2013-06-14 17:16:00,84.0,61.0,30.01,East,90,0.0,6.0,46,0.00,,,0.00,Rainwise IP-100,2013-06-14 21:16:00,
2013-06-14 17:21:00,85.0,62.5,30.02,ENE,67,0.0,6.0,47,0.00,,,0.00,Rainwise IP-100,2013-06-14 21:21:00,
2013-06-14 17:26:00,86.0,61.0,30.02,South,180,0.0,4.0,43,0.00,,,0.00,Rainwise IP-100,2013-06-14 21:26:00,
2013-06-14 17:31:00,87.0,61.0,30.02,WNW,292,3.0,0.0,42,0.00,,,0.00,Rainwise IP-100,2013-06-14 21:31:00,
2013-06-14 17:36:00,85.0,59.5,30.02,West,270,0.0,9.0,42,0.00,,,0.00,Rainwise IP-100,2013-06-14 21:36:00,
2013-06-14 17:41:00,85.0,59.5,30.02,West,270,0.0,6.0,42,0.00,,,0.00,Rainwise IP-100,2013-06-14 21:41:00,
2013-06-14 17:46:00,85.0,60.0,30.02,SE,135,0.0,5.0,43,0.00,,,0.00,Rainwise IP-100,2013-06-14 21:46:00,
2013-06-14 17:51:00,83.0,59.0,30.01,SE,135,0.0,1.0,44,0.00,,,0.00,Rainwise IP-100,2013-06-14 21:51:00,
2013-06-14 17:56:00,83.0,60.0,30.01,SW,225,0.0,0.0,46,0.00,,,0.00,Rainwise IP-100,2013-06-14 21:56:00,
2013-06-14 18:01:00,83.0,61.0,30.01,WSW,247,0.0,1.0,47,0.00,,,0.00,Rainwise IP-100,2013-06-14 22:01:00,
2013-06-14 18:06:00,84.0,60.5,30.01,NW,315,0.0,10.0,45,0.00,,,0.00,Rainwise IP-100,2013-06-14 22:06:00,
2013-06-14 18:11:00,85.0,60.5,30.02,NW,315,3.0,4.0,44,0.00,,,0.00,Rainwise IP-100,2013-06-14 22:11:00,
2013-06-14 18:16:00,85.0,60.5,30.02,NNW,337,0.0,6.0,44,0.00,,,0.00,Rainwise IP-100,2013-06-14 22:16:00,
2013-06-14 18:21:00,85.0,59.0,30.02,ESE,112,0.0,6.0,41,0.00,,,0.00,Rainwise IP-100,2013-06-14 22:21:00,
2013-06-14 18:26:00,85.0,60.5,30.02,West,270,2.0,0.0,44,0.00,,,0.00,Rainwise IP-100,2013-06-14 22:26:00,
2013-06-14 18:31:00,85.0,59.5,30.02,NW,315,0.0,6.0,42,0.00,,,0.00,Rainwise IP-100,2013-06-14 22:31:00,
2013-06-14 18:36:00,85.0,60.0,30.02,NNW,337,0.0,1.0,43,0.00,,,0.00,Rainwise IP-100,2013-06-14 22:36:00,
2013-06-14 18:41:00,85.0,60.5,30.02,East,90,0.0,0.0,44,0.00,,,0.00,Rainwise IP-100,2013-06-14 22:41:00,
2013-06-14 18:46:00,85.0,60.5,30.02,SE,135,0.0,2.0,44,0.00,,,0.00,Rainwise IP-100,2013-06-14 22:46:00,
2013-06-14 18:51:00,84.0,60.0,30.02,East,90,0.0,2.0,44,0.00,,,0.00,Rainwise IP-100,2013-06-14 22:51:00,
2013-06-14 18:56:00,84.0,62.5,30.02,East,90,0.0,0.0,48,0.00,,,0.00,Rainwise IP-100,2013-06-14 22:56:00,
2013-06-14 19:02:00,85.0,65.0,30.02,East,90,0.0,0.0,51,0.00,,,0.00,Rainwise IP-100,2013-06-14 23:02:00,
2013-06-14 19:07:00,84.0,64.0,30.02,North,360,0.0,0.0,51,0.00,,,0.00,Rainwise IP-100,2013-06-14 23:07:00,
2013-06-14 19:12:00,84.0,64.5,30.03,NNW,337,0.0,0.0,52,0.00,,,0.00,Rainwise IP-100,2013-06-14 23:12:00,
2013-06-14 19:17:00,84.0,64.5,30.03,NNW,337,0.0,0.0,52,0.00,,,0.00,Rainwise IP-100,2013-06-14 23:17:00,
2013-06-14 19:22:00,83.0,63.5,30.02,NNW,337,0.0,0.0,52,0.00,,,0.00,Rainwise IP-100,2013-06-14 23:22:00,
2013-06-14 19:27:00,82.0,65.0,30.02,NNW,337,0.0,0.0,56,0.00,,,0.00,Rainwise IP-100,2013-06-14 23:27:00,
2013-06-14 19:32:00,81.0,64.5,30.02,NNW,337,0.0,0.0,57,0.00,,,0.00,Rainwise IP-100,2013-06-14 23:32:00,
2013-06-14 19:37:00,80.0,65.5,30.02,SE,135,0.0,3.0,61,0.00,,,0.00,Rainwise IP-100,2013-06-14 23:37:00,
2013-06-14 19:42:00,79.0,65.0,30.02,NNE,22,0.0,3.0,62,0.00,,,0.00,Rainwise IP-100,2013-06-14 23:42:00,
2013-06-14 19:47:00,79.0,66.0,30.02,NNE,22,0.0,0.0,64,0.00,,,0.00,Rainwise IP-100,2013-06-14 23:47:00,
2013-06-14 19:52:00,78.0,64.5,30.02,NNE,22,0.0,0.0,63,0.00,,,0.00,Rainwise IP-100,2013-06-14 23:52:00,
2013-06-14 19:57:00,78.0,66.0,30.02,NNE,22,0.0,0.0,66,0.00,,,0.00,Rainwise IP-100,2013-06-14 23:57:00,
2013-06-14 20:02:00,77.0,66.0,30.02,NNE,22,0.0,0.0,68,0.00,,,0.00,Rainwise IP-100,2013-06-15 00:02:00,
2013-06-14 20:07:00,77.0,66.3,30.02,NNE,22,0.0,0.0,69,0.00,,,0.00,Rainwise IP-100,2013-06-15 00:07:00,
2013-06-14 20:12:00,76.0,65.5,30.02,NNE,22,0.0,0.0,70,0.00,,,0.00,Rainwise IP-100,2013-06-15 00:12:00,
2013-06-14 20:17:00,76.0,64.5,30.02,NNE,22,0.0,0.0,68,0.00,,,0.00,Rainwise IP-100,2013-06-15 00:17:00,
2013-06-14 20:22:00,75.0,65.0,30.02,NNE,22,0.0,0.0,71,0.00,,,0.00,Rainwise IP-100,2013-06-15 00:22:00,
2013-06-14 20:27:00,75.0,65.5,30.02,NNE,22,0.0,0.0,72,0.00,,,0.00,Rainwise IP-100,2013-06-15 00:27:00,
2013-06-14 20:32:00,75.0,66.7,30.02,NNE,22,0.0,0.0,75,0.00,,,0.00,Rainwise IP-100,2013-06-15 00:32:00,
2013-06-14 20:37:00,74.0,66.0,30.02,NNE,22,0.0,0.0,75,0.00,,,0.00,Rainwise IP-100,2013-06-15 00:37:00,
2013-06-14 20:42:00,74.0,65.5,30.02,NNE,22,0.0,0.0,74,0.00,,,0.00,Rainwise IP-100,2013-06-15 00:42:00,
2013-06-14 20:47:00,73.0,65.0,30.02,NNE,22,0.0,0.0,76,0.00,,,0.00,Rainwise IP-100,2013-06-15 00:47:00,
2013-06-14 20:52:00,73.0,65.5,30.02,NNE,22,0.0,0.0,77,0.00,,,0.00,Rainwise IP-100,2013-06-15 00:52:00,
2013-06-14 20:57:00,73.0,65.5,30.03,NNE,22,0.0,0.0,77,0.00,,,0.00,Rainwise IP-100,2013-06-15 00:57:00,
2013-06-14 21:02:00,72.0,64.0,30.02,NNE,22,0.0,0.0,76,0.00,,,0.00,Rainwise IP-100,2013-06-15 01:02:00,
2013-06-14 21:07:00,72.0,66.0,30.03,NNE,22,0.0,0.0,81,0.00,,,0.00,Rainwise IP-100,2013-06-15 01:07:00,
2013-06-14 21:12:00,72.0,66.0,30.02,NNE,22,0.0,0.0,81,0.00,,,0.00,Rainwise IP-100,2013-06-15 01:12:00,
2013-06-14 21:17:00,72.0,66.3,30.03,NNE,22,0.0,0.0,82,0.00,,,0.00,Rainwise IP-100,2013-06-15 01:17:00,
2013-06-14 21:22:00,71.0,66.3,30.03,NNE,22,0.0,0.0,86,0.00,,,0.00,Rainwise IP-100,2013-06-15 01:22:00,
2013-06-14 21:27:00,71.0,66.3,30.03,NNE,22,0.0,0.0,86,0.00,,,0.00,Rainwise IP-100,2013-06-15 01:27:00,
2013-06-14 21:32:00,71.0,66.7,30.03,NNE,22,0.0,0.0,87,0.00,,,0.00,Rainwise IP-100,2013-06-15 01:32:00,
2013-06-14 21:37:00,71.0,66.7,30.03,NNE,22,0.0,0.0,87,0.00,,,0.00,Rainwise IP-100,2013-06-15 01:37:00,
2013-06-14 21:42:00,71.0,67.0,30.03,NNE,22,0.0,0.0,88,0.00,,,0.00,Rainwise IP-100,2013-06-15 01:42:00,
2013-06-14 21:47:00,71.0,67.5,30.03,NNE,22,0.0,0.0,90,0.00,,,0.00,Rainwise IP-100,2013-06-15 01:47:00,
2013-06-14 21:52:00,71.0,67.5,30.03,NNE,22,0.0,0.0,90,0.00,,,0.00,Rainwise IP-100,2013-06-15 01:52:00,
2013-06-14 21:57:00,71.0,68.0,30.03,NNE,22,0.0,0.0,91,0.00,,,0.00,Rainwise IP-100,2013-06-15 01:57:00,
2013-06-14 22:02:00,70.0,67.0,30.04,NNE,22,0.0,0.0,91,0.00,,,0.00,Rainwise IP-100,2013-06-15 02:02:00,
2013-06-14 22:07:00,70.0,67.5,30.04,NNE,22,0.0,0.0,92,0.00,,,0.00,Rainwise IP-100,2013-06-15 02:07:00,
2013-06-14 22:12:00,70.0,68.5,30.04,NNE,22,0.0,0.0,94,0.00,,,0.00,Rainwise IP-100,2013-06-15 02:12:00,
2013-06-14 22:17:00,70.0,69.0,30.04,NNE,22,0.0,0.0,96,0.00,,,0.00,Rainwise IP-100,2013-06-15 02:17:00,
2013-06-14 22:22:00,70.0,69.0,30.04,NNE,22,0.0,0.0,96,0.00,,,0.00,Rainwise IP-100,2013-06-15 02:22:00,
2013-06-14 22:27:00,70.0,69.0,30.05,NNE,22,0.0,0.0,96,0.00,,,0.00,Rainwise IP-100,2013-06-15 02:27:00,
2013-06-14 22:32:00,70.0,69.3,30.04,NNE,22,0.0,0.0,97,0.00,,,0.00,Rainwise IP-100,2013-06-15 02:32:00,
2013-06-14 22:37:00,70.0,69.3,30.05,NNE,22,0.0,0.0,97,0.00,,,0.00,Rainwise IP-100,2013-06-15 02:37:00,
2013-06-14 22:42:00,70.0,69.0,30.05,NNE,22,0.0,0.0,96,0.00,,,0.00,Rainwise IP-100,2013-06-15 02:42:00,
2013-06-14 22:47:00,69.0,67.0,30.05,NNE,22,0.0,0.0,95,0.00,,,0.00,Rainwise IP-100,2013-06-15 02:47:00,
2013-06-14 22:52:00,69.0,67.5,30.05,NNE,22,0.0,0.0,96,0.00,,,0.00,Rainwise IP-100,2013-06-15 02:52:00,
2013-06-14 22:57:00,69.0,67.5,30.06,NNE,22,0.0,0.0,96,0.00,,,0.00,Rainwise IP-100,2013-06-15 02:57:00,
2013-06-14 23:02:00,69.0,68.5,30.06,NNE,22,0.0,0.0,98,0.00,,,0.00,Rainwise IP-100,2013-06-15 03:02:00,
2013-06-14 23:07:00,69.0,68.0,30.06,NNE,22,0.0,0.0,97,0.00,,,0.00,Rainwise IP-100,2013-06-15 03:07:00,
2013-06-14 23:12:00,69.0,68.0,30.06,NNE,22,0.0,0.0,97,0.00,,,0.00,Rainwise IP-100,2013-06-15 03:12:00,
2013-06-14 23:17:00,69.0,67.5,30.06,NNE,22,0.0,0.0,96,0.00,,,0.00,Rainwise IP-100,2013-06-15 03:17:00,
2013-06-14 23:22:00,69.0,67.5,30.06,NNE,22,0.0,0.0,96,0.00,,,0.00,Rainwise IP-100,2013-06-15 03:22:00,
2013-06-14 23:27:00,69.0,67.5,30.06,NNE,22,0.0,0.0,96,0.00,,,0.00,Rainwise IP-100,2013-06-15 03:27:00,
2013-06-14 23:32:00,69.0,67.5,30.06,NNE,22,0.0,0.0,96,0.00,,,0.00,Rainwise IP-100,2013-06-15 03:32:00,
2013-06-14 23:37:00,68.0,67.0,30.06,NNE,22,0.0,0.0,97,0.00,,,0.00,Rainwise IP-100,2013-06-15 03:37:00,
2013-06-14 23:42:00,68.0,67.5,30.06,NNE,22,0.0,0.0,98,0.00,,,0.00,Rainwise IP-100,2013-06-15 03:42:00,
2013-06-14 23:47:00,68.0,67.5,30.07,NNE,22,0.0,0.0,98,0.00,,,0.00,Rainwise IP-100,2013-06-15 03:47:00,
2013-06-14 23:52:00,68.0,68.0,30.07,NNE,22,0.0,0.0,100,0.00,,,0.00,Rainwise IP-100,2013-06-15 03:52:00,
2013-06-14 23:57:00,68.0,68.0,30.07,NNE,22,0.0,0.0,100,0.00,,,0.00,Rainwise IP-100,2013-06-15 03:57:00,